Tracking 18850 objects as of 22-Nov-2017
HD Live streaming from Space Station
objects crossing your sky now

FENGYUN 1C DEB

Track FENGYUN 1C DEB now!
10-day predictions


NORAD ID: 30270
Int'l Code: 1999-025YF
Perigee: 860.7 km
Apogee: 870.9 km
Inclination: 99.0 °
Period: 102.1 minutes
Semi major axis: 7236 km
RCS: 0.1278 m2 (medium)
Launch date: May 10, 1999
Source: People's Republic of China (PRC)
Launch site: Taiyaun Space Center, China (TSC)

Note: This is SATELLITE DEBRIS
aabbcc
Your satellite tracking list
Your tracking list is empty




NASA's NSSDC Master Catalog

Two Line Element Set (TLE):
1 30270U 99025YF  17325.09029841  .00000074  00000-0  67045-4 0  9995
2 30270  98.9863 347.1122 0007042 195.9893 233.2844 14.10196617558767
Source of the keplerian elements: AFSPC